Location: Carnières
(50.1682°N, 3.3474°E)
Time: 04:52:29
(UTC+00:00)

MOZ.5/SAFIR/RUBIN 5/SL-8 - Pass Details

Date: 10 August 2024
Orbit: 671 x 698 km, 98.3° (Epoch: 08 September)

Event Time Altitude Azimuth Distance (km) Brightness Sun altitude
Exits shadow 02:03:05 32° 243° (WSW) 1,177 4.5 -18.3°
Maximum altitude 02:03:52 34° 264° (W) 1,130 4.5 -18.3°
Drops below altitude 10° 02:08:11 10° 330° (NNW) 2,165 6.7 -17.9°
Sets 02:10:39 0° 339° (NNW) 3,090 7.6 -17.7°
